Ankeny, IA

2:03 PM CDT on July 26, 2017 (GMT -0500)
Ankeny Regional

Weather History for KIKV - February, 2013

Change the Weather History Date:

Monday, February 18, 2013

  Actual Average (KDSM) Record (KDSM)
Temperature  
Mean Temperature 30 °F -  
Max Temperature 44 °F 38 °F 68 °F (1981)
Min Temperature 17 °F 20 °F -13 °F (1903)
Degree Days  
Heating Degree Days 34    
Moisture  
Dew Point 22 °F    
Average Humidity 70    
Maximum Humidity 86    
Minimum Humidity 57    
Precipitation  
Precipitation 0.00 in - - ()
Sea Level Pressure  
Sea Level Pressure 29.69 in    
Wind  
Wind Speed 10 mph (NW)    
Max Wind Speed 25 mph    
Max Gust Speed 39 mph    
Visibility 10 miles    
Events Snow    
Averages and records for this station are not official NWS values.
T = Trace of Precipitation, MM = Missing Value Source: NWS Daily Summary

Daily Weather History Graph

Daily Weather History Graph

Search for Another Location

Airport or City:

Trip Planner

Search our weather history database for the weather conditions in past years. The results will help you decide how hot, cold, wet, or windy it might be!

Date:

Astronomy

Feb. 18, 2013 Rise Set
Actual Time 7:05 AM CST 5:51 PM CST
Civil Twilight 6:36 AM CST 6:20 PM CST
Nautical Twilight 6:04 AM CST 6:52 PM CST
Astronomical Twilight 5:32 AM CST 7:24 PM CST
Moon 11:35 AM CST (2/18) 1:47 AM CST (2/18)
Length of Visible Light 11h 43m
Length of Day
10h 46m
First Quarter, 58% of the Moon is Illuminated
Feb 18
First Quarter
Feb 25
Full
Mar 4
Last Quarter
Mar 11
New
Mar 19
First Quarter

Hourly Weather History & Observations

Time (CST) Temp. Windchill Dew Point Humidity Pressure Visibility Wind Dir Wind Speed Gust Speed Precip Events Conditions
12:15 AM 35.6 °F 28.6 °F 24.8 °F 65% 29.64 in 10.0 mi SSE 9.2 mph - N/A   Clear
12:35 AM 35.6 °F 28.6 °F 24.8 °F 65% 29.63 in 10.0 mi SSE 9.2 mph - N/A   Clear
12:55 AM 35.6 °F 29.9 °F 24.8 °F 65% 29.63 in 10.0 mi SE 6.9 mph - N/A   Clear
1:15 AM 35.6 °F 29.2 °F 24.8 °F 65% 29.62 in 10.0 mi SSE 8.1 mph - N/A   Clear
1:35 AM 35.6 °F 29.9 °F 24.8 °F 65% 29.61 in 10.0 mi SSE 6.9 mph - N/A   Clear
1:55 AM 35.6 °F 30.7 °F 24.8 °F 65% 29.60 in 10.0 mi SSE 5.8 mph - N/A   Clear
2:15 AM 33.8 °F 28.6 °F 24.8 °F 70% 29.59 in 10.0 mi SE 5.8 mph - N/A   Clear
2:35 AM 33.8 °F 29.6 °F 24.8 °F 70% 29.59 in 10.0 mi SE 4.6 mph - N/A   Clear
2:55 AM 33.8 °F 27.7 °F 26.6 °F 75% 29.58 in 10.0 mi SSE 6.9 mph - N/A   Clear
3:15 AM 32.0 °F - 24.8 °F 75% 29.58 in 10.0 mi Calm Calm - N/A   Clear
3:35 AM 33.8 °F - 26.6 °F 75% 29.57 in 10.0 mi Calm Calm - N/A   Clear
3:55 AM 33.8 °F - 26.6 °F 75% 29.57 in 10.0 mi Calm Calm - N/A   Clear
4:15 AM 30.2 °F - 23.0 °F 75% 29.57 in 10.0 mi Calm Calm - N/A   Clear
4:35 AM 30.2 °F - 24.8 °F 80% 29.56 in 10.0 mi Calm Calm - N/A   Clear
4:55 AM 32.0 °F - 26.6 °F 80% 29.57 in 10.0 mi Calm Calm - N/A   Clear
5:15 AM 30.2 °F - 24.8 °F 80% 29.57 in 10.0 mi Calm Calm - N/A   Clear
5:35 AM 28.4 °F - 23.0 °F 80% 29.58 in 10.0 mi Calm Calm - N/A   Clear
5:55 AM 26.6 °F 22.6 °F 23.0 °F 86% 29.57 in 10.0 mi North 3.5 mph - N/A   Clear
6:15 AM 26.6 °F - 23.0 °F 86% 29.57 in 10.0 mi Calm Calm - N/A   Clear
6:35 AM 28.4 °F - 24.8 °F 86% 29.58 in 10.0 mi Calm Calm - N/A   Clear
6:55 AM 28.4 °F - 24.8 °F 86% 29.57 in 10.0 mi Calm Calm - N/A   Clear
7:15 AM 28.4 °F - 24.8 °F 86% 29.57 in 10.0 mi Calm Calm - N/A   Clear
7:35 AM 30.2 °F - 26.6 °F 86% 29.57 in 10.0 mi Calm Calm - N/A   Clear
7:55 AM 30.2 °F - 26.6 °F 86% 29.58 in 10.0 mi Calm Calm - N/A   Clear
8:15 AM 30.2 °F - 26.6 °F 86% 29.58 in 10.0 mi Calm Calm - N/A   Clear
8:35 AM 35.6 °F 29.9 °F 28.4 °F 75% 29.59 in 10.0 mi West 6.9 mph - N/A   Clear
8:55 AM 37.4 °F 29.8 °F 30.2 °F 75% 29.58 in 10.0 mi NW 11.5 mph 18.4 mph N/A   Clear
9:15 AM 37.4 °F 29.3 °F 30.2 °F 75% 29.58 in 10.0 mi NW 12.7 mph - N/A   Clear
9:35 AM 39.2 °F 32.5 °F 30.2 °F 70% 29.59 in 10.0 mi NW 10.4 mph - N/A   Clear
9:55 AM 41.0 °F 34.7 °F 32.0 °F 70% 29.59 in 10.0 mi NW 10.4 mph 18.4 mph N/A   Clear
10:15 AM 42.8 °F 35.8 °F 32.0 °F 66% 29.60 in 10.0 mi NW 13.8 mph 20.7 mph N/A   Clear
10:35 AM 44.6 °F 38.8 °F 32.0 °F 61% 29.61 in 10.0 mi NW 11.5 mph 20.7 mph N/A   Clear
10:55 AM 44.6 °F 36.9 °F 32.0 °F 61% 29.60 in 10.0 mi NNW 18.4 mph 25.3 mph N/A   Clear
11:15 AM 44.6 °F 36.4 °F 30.2 °F 57% 29.62 in 10.0 mi NW 20.7 mph 28.8 mph N/A   Scattered Clouds
11:35 AM 42.8 °F 34.8 °F 30.2 °F 61% 29.63 in 10.0 mi NNW 17.3 mph 23.0 mph N/A   Mostly Cloudy
11:55 AM 41.0 °F 32.8 °F 30.2 °F 65% 29.65 in 10.0 mi NW 16.1 mph 23.0 mph N/A   Overcast
12:15 PM 41.0 °F 33.9 °F 30.2 °F 65% 29.65 in 10.0 mi NW 12.7 mph 18.4 mph N/A   Overcast
12:35 PM 39.2 °F 32.0 °F 30.2 °F 70% 29.64 in 10.0 mi NW 11.5 mph 21.9 mph N/A   Overcast
12:55 PM 39.2 °F 31.2 °F 30.2 °F 70% 29.65 in 10.0 mi NW 13.8 mph 18.4 mph N/A   Overcast
1:15 PM 39.2 °F 29.8 °F 30.2 °F 70% 29.65 in 10.0 mi NW 18.4 mph 26.5 mph N/A   Overcast
1:35 PM 39.2 °F 29.3 °F 28.4 °F 65% 29.64 in 10.0 mi NW 20.7 mph 27.6 mph N/A   Overcast
1:55 PM 35.6 °F 24.2 °F 26.6 °F 70% 29.66 in 10.0 mi NW 21.9 mph 29.9 mph N/A   Overcast
2:15 PM 33.8 °F 22.2 °F 26.6 °F 75% 29.67 in 2.5 mi NW 20.7 mph 32.2 mph N/A Snow Light Snow
2:35 PM 30.2 °F 18.1 °F 26.6 °F 86% 29.69 in 1.2 mi NW 18.4 mph 29.9 mph N/A Snow Light Snow
2:55 PM 30.2 °F 16.8 °F 24.8 °F 80% 29.69 in 3.0 mi NW 23.0 mph 28.8 mph N/A Snow Light Snow
3:15 PM 30.2 °F 18.1 °F 24.8 °F 80% 29.70 in 4.0 mi NW 18.4 mph 27.6 mph N/A   Mostly Cloudy
3:35 PM 30.2 °F 18.1 °F 21.2 °F 69% 29.70 in 10.0 mi NW 18.4 mph 28.8 mph N/A   Overcast
3:55 PM 30.2 °F 16.5 °F 21.2 °F 69% 29.71 in 10.0 mi NW 24.2 mph 32.2 mph N/A   Overcast
4:15 PM 30.2 °F 16.8 °F 19.4 °F 64% 29.72 in 10.0 mi NW 23.0 mph 33.4 mph N/A   Overcast
4:35 PM 28.4 °F 14.7 °F 19.4 °F 69% 29.72 in 10.0 mi NW 21.9 mph 33.4 mph N/A   Overcast
4:55 PM 28.4 °F 14.7 °F 19.4 °F 69% 29.73 in 10.0 mi NW 21.9 mph 28.8 mph N/A   Mostly Cloudy
5:15 PM 28.4 °F 14.4 °F 17.6 °F 64% 29.75 in 10.0 mi NW 23.0 mph 38.0 mph N/A   Scattered Clouds
5:35 PM 28.4 °F 15.1 °F 17.6 °F 64% 29.77 in 10.0 mi NW 20.7 mph 32.2 mph N/A   Mostly Cloudy
5:55 PM 26.6 °F 12.4 °F 15.8 °F 64% 29.78 in 10.0 mi NW 21.9 mph 39.1 mph N/A   Mostly Cloudy
6:15 PM 26.6 °F 13.4 °F 15.8 °F 64% 29.80 in 10.0 mi NW 18.4 mph 29.9 mph N/A   Scattered Clouds
6:35 PM 26.6 °F 11.4 °F 15.8 °F 64% 29.81 in 10.0 mi NW 25.3 mph 32.2 mph N/A   Mostly Cloudy
6:55 PM 24.8 °F 11.9 °F 12.2 °F 59% 29.82 in 10.0 mi NW 16.1 mph 35.7 mph N/A   Mostly Cloudy
7:15 PM 24.8 °F 10.3 °F 12.2 °F 59% 29.83 in 10.0 mi WNW 20.7 mph 31.1 mph N/A   Scattered Clouds
7:35 PM 24.8 °F 11.9 °F 12.2 °F 59% 29.84 in 10.0 mi NW 16.1 mph 31.1 mph N/A   Scattered Clouds
7:55 PM 23.0 °F 9.6 °F 12.2 °F 63% 29.85 in 10.0 mi NW 16.1 mph 25.3 mph N/A   Scattered Clouds
8:15 PM 23.0 °F 8.3 °F 12.2 °F 63% 29.86 in 10.0 mi NW 19.6 mph 29.9 mph N/A   Scattered Clouds
8:35 PM 23.0 °F 7.6 °F 12.2 °F 63% 29.87 in 10.0 mi NW 21.9 mph 33.4 mph N/A Snow Light Snow
8:55 PM 21.2 °F 5.6 °F 10.4 °F 63% 29.87 in 10.0 mi NW 20.7 mph 34.5 mph N/A   Scattered Clouds
9:15 PM 21.2 °F 6.4 °F 10.4 °F 63% 29.88 in 10.0 mi WNW 18.4 mph 28.8 mph N/A   Scattered Clouds
9:35 PM 19.4 °F 3.6 °F 6.8 °F 58% 29.89 in 10.0 mi NW 19.6 mph 33.4 mph N/A   Scattered Clouds
9:55 PM 19.4 °F 4.1 °F 8.6 °F 63% 29.89 in 10.0 mi WNW 18.4 mph 28.8 mph N/A   Scattered Clouds
10:15 PM 17.6 °F 0.5 °F 6.8 °F 63% 29.89 in 10.0 mi NW 21.9 mph 35.7 mph N/A   Scattered Clouds
10:35 PM 17.6 °F 1.3 °F 6.8 °F 63% 29.90 in 10.0 mi WNW 19.6 mph 31.1 mph N/A   Scattered Clouds
10:55 PM 17.6 °F 0.5 °F 8.6 °F 68% 29.91 in 10.0 mi WNW 21.9 mph 29.9 mph N/A   Mostly Cloudy
11:15 PM 17.6 °F 1.7 °F 8.6 °F 68% 29.91 in 10.0 mi WNW 18.4 mph 32.2 mph N/A   Overcast
11:35 PM 17.6 °F 0.1 °F 8.6 °F 68% 29.92 in 10.0 mi WNW 23.0 mph 34.5 mph N/A   Overcast
11:55 PM 17.6 °F 0.9 °F 8.6 °F 68% 29.92 in 10.0 mi WNW 20.7 mph 28.8 mph N/A   Overcast